STARLINK-4302, 53481

Orbit data source: Space-Track

STARLINK-4302, 53481 is a payload satellite owned by SpaceX/Seattle (US) in SSO that was launched on Fri, 12 Aug 2022 UTC via an FALCON 9 launch vehicle from the Air Force Western Test Range (AFWTR). Payload-class satellites include a variety of spacecraft equipped with specific instruments for various scientific and technological missions. These include communications satellites like Starlink; space stations such as the ISS; scientific satellites like the Hubble; Earth observation satellites from companies like Planet Labs, Umbra, and HawkEye 360; GPS; miniature CubeSats for education and research; and military/defense satellites.

Loading next visibility...
Identifier
53481, 2022-099S
Orbit
SSO
Country
Flag of USUS
Related business
Manufacturer
SpaceX/Seattle
Mission
Operational Commercial Communications
Bus & Motor
STARLINK, Unknown motor
Mass
300 kg wet, ~275 kg dry
Launch date (UTC)
2022-08-12 (3 years ago)
Launch vehicle
FALCON 9
Launch site
Air Force Western Test Range (AFWTR)
Object type
Payload
Rocket body
Debris
Shape & HBR
Box + 1 Pan, 10.1 m
Radar Cross Section
13.562 m², Large (>1 m²)

Expand to show TLE details & history
Last TLE update: 9 hours ago

TLE from 9 hours ago
0 STARLINK-4302
1 53481U 22099S   25293.60031184  .00006992  00000-0  54829-3 0  9994
2 53481  97.6042  53.0661 0003174  85.0616 275.0971 15.01262011174960
Epoch: 2025-10-20T14:24Z
TLE epoch observation values (Epoch: 2025-10-20T14:24:26.942Z)
Latitude
-0.00002°
Longitude
167.65355°
Altitude
565.868 km
Speed
7.578 km/s
True Right ascension
03h 32m 15s
True Declination
0° 00' 00"
Sunlit
Object was in full shadow at epoch
Visualization orbit readout
Latitude
Unknown
Longitude
Unknown
Altitude
Unknown
Speed
Unknown
Apparent Right ascension
Unknown
Apparent Declination
Unknown
Sunlit
N/A
Visualization observer readout
Local Sidereal Time
18:15:58
Azimuth
Unknown
Elevation
Unknown
Doppler factor
Unknown
Orbital elements
Apogee altitude
562.205 km
Perigee altitude
557.801 km
Semi-major axis
6,938.14 km
Eccentricity
0.00032
Inclination
97.6042°
RAAN
53.0661°
Arg. of periapsis
85.0616°
True anomaly
275.06087°
Mean anomaly
275.0971°
Eccentric anomaly
275.07899°
Mean motion
3.75559 °/min
Orbital period
95.86 mins
BSTAR
0.00054829
Loading maneuver chart data...
Computing Atmospheric mass density...
Loading historical data...
Loading historical data...
Loading historical data...
Loading historical data...
Loading historical data...
Loading historical data...
Loading historical data...

Documentation

Showing up to 5 results
|